This is the latest recevied weather packets stored in our database for station/object ZL1CTS-13. If no packets are shown the sender has not sent any weather packets the latest 10 day(s).
| Time | Temp. | Humidity | Pressure | Rain* | Wind** | Luminosity | Snow |
|---|---|---|---|---|---|---|---|
| 1777894203 | 11.67° C | 95% | 1025 hPa | 0 mm | - | - | - |
| 1777893604 | 11.11° C | 95% | 1025 hPa | 0 mm | - | - | - |
| 1777893004 | 11.67° C | 95% | 1025.1 hPa | 0 mm | - | - | - |
| 1777892404 | 11.11° C | 95% | 1025.2 hPa | 0 mm | - | - | - |
| 1777891804 | 10.56° C | 95% | 1025.2 hPa | 0 mm | - | - | - |
| 1777891204 | 10.56° C | 94% | 1025.3 hPa | 0 mm | - | - | - |
| 1777890604 | 10.56° C | 94% | 1025.3 hPa | 0 mm | - | - | - |
| 1777890004 | 10° C | 93% | 1025.3 hPa | 0 mm | - | - | - |
| 1777889404 | 10.56° C | 92% | 1025.5 hPa | 0 mm | - | - | - |
| 1777888804 | 10.56° C | 92% | 1025.5 hPa | 0 mm | - | - | - |
| 1777888204 | 10.56° C | 91% | 1025.4 hPa | 0 mm | - | - | - |
| 1777887604 | 10.56° C | 90% | 1025.4 hPa | 0 mm | - | - | - |
| 1777887004 | 11.11° C | 89% | 1025.5 hPa | 0 mm | - | - | - |
| 1777886404 | 11.11° C | 89% | 1025.4 hPa | 0 mm | - | - | - |
| 1777885804 | 11.67° C | 89% | 1025.3 hPa | 0 mm | - | - | - |
| 1777885204 | 11.67° C | 89% | 1025.4 hPa | 0 mm | - | - | - |
| 1777884604 | 11.67° C | 89% | 1025.3 hPa | 0 mm | - | - | - |
| 1777884004 | 12.22° C | 88% | 1025.2 hPa | 0 mm | - | - | - |
| 1777883404 | 12.22° C | 88% | 1025.1 hPa | 0 mm | - | - | - |
| 1777882803 | 12.78° C | 89% | 1025.1 hPa | 0 mm | - | - | - |
| 1777882203 | 12.78° C | 89% | 1025.1 hPa | 0 mm | - | - | - |
| 1777881604 | 12.78° C | 88% | 1025.1 hPa | 0 mm | - | - | - |
| 1777881004 | 12.78° C | 88% | 1025 hPa | 0 mm | - | - | - |
| 1777880404 | 12.78° C | 88% | 1024.9 hPa | 0 mm | - | - | - |
| 1777879804 | 12.78° C | 88% | 1024.8 hPa | 0 mm | - | - | - |
* Rain latest hour (hover to see other rain measurements)
** Current wind speed in m/s (hover to see current wind gust speed)